Theta_e
319 319 319 319 319 319 319 320 320 321 321 321 321 319 316 316 317 324 330 331 341 340 337 357 360 355 355 346 341 343 346 348 350 351 350 343 344 344 343 344 345 346 345 344 344
319 319 318 318 319 319 319 319 320 321 321 321 320 318 315 316 322 326 331 329 324 333 348 358 345 345 347 349 350 350 348 349 346 348 349 344 343 345 346 346 344 345 345 343 343
319 318 318 318 318 318 318 319 320 321 321 320 318 316 315 315 332 329 333 325 323 328 344 348 341 345 349 349 350 346 347 346 349 346 346 346 346 346 347 347 344 347 346 344 343
319 319 318 318 318 318 318 318 320 321 321 317 316 314 315 323 330 334 324 322 323 331 343 346 342 344 349 350 348 347 346 346 347 348 350 347 345 346 348 346 343 345 344 343 343
319 319 318 318 318 318 318 319 321 320 320 314 314 314 320 331 325 329 324 322 326 337 342 344 339 345 351 348 347 347 346 347 347 348 348 347 347 347 344 344 344 344 343 343 343
318 317 318 319 319 319 319 319 321 320 318 315 314 315 329 326 325 327 331 334 326 337 341 341 338 342 349 347 348 349 347 348 348 348 350 347 347 348 343 343 343 344 344 343 342
316 316 316 317 318 318 319 319 321 321 322 319 317 321 328 328 326 326 326 328 330 333 339 338 337 340 344 349 346 347 350 350 349 349 351 348 352 350 344 343 343 343 343 343 342
315 315 314 315 315 316 319 320 321 321 324 321 318 326 330 324 324 324 325 327 332 334 336 334 335 338 343 345 346 348 351 356 349 348 349 358 362 350 344 344 343 343 344 344 343
311 312 313 313 314 317 319 321 323 321 323 323 328 331 329 323 323 323 324 327 328 332 331 333 334 338 341 345 352 351 357 351 347 346 349 353 356 352 346 345 345 344 346 347 346
309 310 311 313 314 317 321 324 327 322 329 332 333 334 331 327 326 324 325 327 329 329 331 333 336 338 340 349 361 353 354 350 350 347 348 348 355 353 350 346 346 346 347 347 348
308 308 310 312 314 318 322 327 333 334 331 333 334 332 329 327 327 327 326 327 328 329 331 333 336 337 339 346 347 346 352 348 342 342 347 348 354 354 353 349 348 348 348 347 348
308 309 309 311 314 320 323 332 329 329 331 331 331 329 330 329 328 328 327 327 326 327 328 331 334 335 336 345 347 347 345 345 343 342 344 351 354 354 353 353 350 348 349 349 348
307 308 309 310 316 324 328 329 328 329 331 331 330 328 329 328 328 328 327 327 326 326 328 329 333 334 335 337 341 341 341 344 346 341 340 340 350 357 359 352 353 350 348 349 349
306 307 310 309 320 325 330 328 328 328 332 333 331 330 329 328 327 327 327 328 326 326 327 328 330 333 332 336 338 341 340 340 339 340 339 341 351 350 353 354 353 352 350 349 349
305 306 309 312 318 327 328 327 327 328 337 334 331 331 330 328 328 326 328 327 326 327 327 327 328 329 331 333 335 339 339 341 340 340 338 338 342 351 346 352 349 352 351 350 349
304 306 309 319 321 325 326 327 329 333 333 334 332 330 329 328 328 328 328 328 327 327 327 327 329 329 329 331 333 335 338 339 339 338 338 337 341 355 356 355 348 348 350 351 350
304 306 310 314 324 324 325 329 335 332 332 332 332 332 329 328 327 329 328 325 325 325 326 327 327 328 328 328 330 332 335 338 340 339 339 337 349 353 348 344 344 350 351 351 350
305 309 312 315 320 323 327 332 336 334 330 334 332 331 329 329 328 328 328 325 325 326 326 326 326 327 328 327 327 329 333 336 340 336 335 340 354 350 345 345 346 346 349 351 350
309 320 323 326 325 325 331 333 333 331 331 332 331 331 331 330 329 328 328 326 326 325 325 326 327 328 328 328 327 327 330 332 331 331 331 340 340 340 344 343 342 340 347 349 350
315 321 323 327 327 328 331 332 333 331 329 331 330 333 333 331 329 329 329 328 327 327 327 327 327 329 328 328 328 326 329 328 328 332 335 340 343 347 351 345 341 342 344 346 347
319 330 328 328 328 331 332 331 332 331 328 328 331 334 333 334 332 330 330 330 328 328 328 327 327 328 328 327 327 327 326 328 330 329 332 333 336 336 339 337 338 343 344 344 345
322 327 331 328 331 330 331 330 327 331 329 327 331 334 334 333 333 331 331 331 330 328 328 327 326 327 328 329 329 328 328 328 330 331 331 332 334 334 335 335 337 343 343 345 345
327 326 330 328 330 328 328 328 330 330 328 329 328 331 333 333 334 333 332 330 329 328 327 329 326 326 328 329 329 327 328 329 328 330 333 331 333 334 335 338 338 344 343 350 348
325 329 326 328 328 330 334 331 330 330 328 329 331 332 333 334 333 334 331 330 329 329 334 328 327 326 328 329 329 328 327 328 329 329 329 330 333 335 336 341 344 349 349 350 353
326 325 332 336 327 326 329 334 332 331 330 329 332 334 335 336 335 334 334 333 330 336 328 327 327 327 328 328 330 329 328 328 328 329 330 332 332 344 341 346 344 351 353 354 354
326 329 328 330 331 333 328 329 332 334 333 332 333 335 334 336 338 341 342 335 337 331 328 328 328 329 330 329 329 329 329 329 328 328 329 330 336 345 344 341 341 355 357 356 356
322 322 323 321 324 324 331 330 332 333 335 333 335 334 336 338 341 341 341 340 340 339 333 330 329 330 330 330 329 329 329 329 329 329 330 329 339 344 346 345 348 358 357 356 357
Wind_Speed
25 26 27 27 27 27 28 28 29 27 23 21 19 17 17 20 17 11 10 0 5 4 8 11 15 18 10 29 19 9 9 12 17 14 12 12 14 16 15 18 14 16 20 27 28
26 27 28 28 28 28 29 29 31 26 22 22 18 15 15 19 15 16 12 9 9 8 10 18 9 35 5 8 9 2 10 12 18 13 13 16 15 15 14 12 7 19 27 29 27
27 28 28 29 29 29 30 31 30 25 24 21 16 12 12 15 9 10 11 11 11 13 13 19 8 11 2 8 14 17 12 10 14 15 16 14 9 14 8 13 16 23 24 25 25
28 29 30 30 29 29 30 32 28 26 23 17 12 9 10 5 4 5 3 10 11 13 16 21 20 13 21 22 10 14 14 13 11 12 6 12 9 10 8 15 19 22 23 23 21
29 30 30 29 29 29 30 33 28 24 17 13 9 9 5 8 13 4 1 8 10 10 16 19 20 9 19 18 20 8 14 13 12 10 9 5 13 12 12 15 20 22 21 19 18
29 30 31 30 30 29 29 31 26 20 13 10 8 8 5 13 2 3 3 7 14 15 19 20 16 10 13 17 16 10 15 13 13 12 6 12 11 13 14 15 19 21 19 17 17
29 31 31 30 30 30 29 28 25 16 11 8 7 5 10 15 1 3 7 10 15 19 17 18 10 16 8 19 8 12 13 13 13 10 12 15 5 13 16 16 19 18 17 17 16
29 30 30 29 30 30 31 25 24 14 10 8 7 5 8 4 6 6 10 12 13 17 15 17 11 17 14 11 10 13 5 4 14 13 18 22 8 14 17 18 18 18 16 15 16
29 29 29 28 29 28 30 25 23 11 10 9 7 9 14 2 12 16 14 14 13 15 17 16 13 15 18 2 10 9 12 12 10 10 19 15 15 17 17 17 17 16 15 14 13
30 29 29 28 28 28 27 25 17 11 8 7 14 9 10 12 9 9 14 15 10 12 15 15 13 13 14 6 7 21 19 8 13 10 11 14 15 17 17 18 16 16 15 14 15
30 30 28 28 25 22 26 12 4 6 11 14 12 13 2 4 1 7 12 12 12 11 16 17 14 15 19 18 33 32 27 14 8 4 11 10 17 19 18 17 17 17 16 16 16
30 30 29 28 24 14 17 8 8 8 11 17 18 13 17 1 8 13 17 13 16 16 16 17 19 20 18 20 23 29 21 16 5 4 6 20 17 19 18 16 17 16 17 17 17
30 29 29 28 19 11 10 6 9 13 7 15 14 13 13 15 13 12 18 17 14 17 17 19 20 18 17 16 13 11 10 12 19 4 7 8 11 18 10 13 15 16 17 17 18
29 29 28 31 9 13 10 6 10 10 6 11 11 8 7 8 12 19 21 16 15 17 18 17 21 18 14 18 16 17 11 12 2 4 8 7 6 8 18 13 14 15 17 18 18
28 28 26 20 16 9 10 11 12 8 6 7 12 7 7 12 7 15 15 16 19 17 12 15 18 16 12 15 14 16 10 8 8 10 11 15 6 4 6 5 10 14 17 18 19
29 26 27 6 10 14 15 14 12 6 9 9 8 8 12 15 10 12 10 13 16 18 14 18 11 14 19 13 14 11 17 12 10 12 12 17 9 11 5 7 5 17 24 19 20
31 22 24 14 9 9 12 11 6 9 6 7 6 9 10 12 15 11 12 16 16 14 15 15 18 7 8 11 14 16 16 10 11 11 13 13 7 5 16 20 25 35 26 21 19
31 22 18 18 10 12 11 7 9 14 9 6 3 5 10 13 13 13 10 13 17 18 14 15 15 18 14 17 14 16 17 11 12 13 10 6 10 10 19 27 24 28 28 21 20
29 12 8 9 10 9 7 10 12 12 9 4 6 7 10 8 8 12 14 15 18 20 19 12 16 17 21 14 14 17 14 15 18 20 16 4 3 6 20 20 19 10 22 20 20
18 13 19 10 9 9 8 15 18 16 5 10 13 10 12 13 11 8 12 14 15 19 19 20 14 10 20 14 15 16 15 13 10 15 15 5 9 5 22 22 15 13 19 19 19
7 5 13 7 9 7 10 15 18 14 4 8 15 16 9 8 10 9 9 9 11 14 15 15 16 10 13 10 14 11 14 12 16 13 11 11 5 11 6 7 11 15 14 19 20
8 5 11 9 8 9 13 19 15 9 3 10 9 13 14 13 6 7 15 8 15 9 15 15 11 13 14 13 15 16 17 16 12 11 13 9 5 9 15 9 5 15 9 12 17
5 9 10 12 8 12 17 21 17 8 15 9 11 13 15 13 5 10 14 2 8 5 8 14 11 13 13 15 13 13 19 17 18 16 13 11 3 3 9 9 8 11 11 8 2
5 4 7 7 12 17 19 14 15 12 16 13 12 12 10 11 11 12 10 7 4 7 7 5 14 13 13 12 15 18 16 12 16 12 14 11 8 13 13 15 9 12 9 8 7
5 4 9 4 10 15 18 17 10 15 11 13 11 13 13 14 15 13 11 5 6 8 4 8 14 15 18 16 8 15 17 18 19 19 16 10 7 18 11 16 8 12 12 10 9
5 6 11 13 15 11 10 14 14 12 13 13 11 16 15 13 10 13 11 2 3 12 10 11 13 13 15 17 6 9 14 14 16 19 17 14 6 23 15 12 9 8 13 10 10
14 15 8 10 13 12 11 11 14 16 15 9 11 12 6 7 13 15 16 16 11 14 7 14 12 12 13 16 9 11 13 14 13 17 13 12 12 20 17 15 15 15 14 13 11
Wind_Direction
358 358 357 356 352 350 348 345 342 339 340 338 335 330 324 321 314 289 259 284 205 257 250 232 236 251 272 72 53 8 82 76 96 108 118 92 89 82 113 144 149 147 151 146 155
354 352 351 350 348 347 345 344 340 338 337 335 332 327 321 323 315 268 249 247 261 246 240 254 11 8 302 152 161 253 74 66 108 123 97 101 120 143 139 137 133 131 129 145 159
350 348 346 345 344 343 342 341 341 337 334 330 327 323 319 327 277 224 218 219 246 250 251 285 295 167 250 250 142 88 102 92 68 100 118 128 152 117 151 151 144 136 143 155 161
347 345 343 341 341 340 338 339 339 334 333 333 326 320 314 315 252 82 213 217 231 248 261 272 270 182 246 50 34 107 103 107 115 101 89 113 137 84 112 134 136 140 150 160 167
343 342 340 338 337 336 335 337 336 335 337 339 331 320 318 232 260 114 179 231 228 236 256 281 304 339 76 70 326 145 121 114 125 127 106 116 107 104 102 116 133 143 155 163 172
338 337 335 334 335 334 332 335 334 332 336 339 331 318 258 251 92 174 208 211 227 224 256 268 306 337 133 146 175 203 146 138 141 121 171 121 124 111 113 128 136 149 164 170 178
334 333 333 332 332 330 329 330 330 324 323 325 318 314 262 249 242 242 239 240 229 243 248 267 295 301 337 161 198 143 152 148 144 151 96 34 194 115 132 138 148 159 170 174 182
334 332 332 332 331 329 325 324 322 309 307 303 292 273 261 63 225 244 242 240 234 238 262 285 301 286 291 124 197 214 33 218 151 161 121 130 165 138 144 151 160 167 175 176 179
339 335 334 333 331 328 322 319 313 290 290 288 284 227 263 160 224 232 227 232 220 237 246 258 280 273 278 117 15 346 227 190 143 183 155 190 143 148 158 161 167 170 173 174 176
341 337 334 333 330 328 319 320 303 284 270 253 265 269 257 239 197 183 206 235 240 226 230 238 247 251 257 95 105 282 287 194 165 167 197 191 146 157 169 168 174 178 175 178 179
341 338 335 332 328 326 321 335 256 194 230 263 303 252 232 277 26 237 210 216 241 225 228 228 238 237 247 130 175 202 226 219 122 199 207 204 149 166 172 178 178 185 179 183 189
340 338 335 332 324 309 304 294 34 325 296 276 263 254 274 247 276 207 212 206 217 226 220 238 227 245 251 161 191 200 232 32 141 202 175 222 170 163 175 190 181 190 182 189 188
338 338 336 330 318 287 289 353 322 325 268 286 221 231 226 222 240 234 198 207 215 224 227 230 237 224 251 252 255 237 259 110 229 181 244 268 80 121 30 230 196 192 188 196 191
338 337 336 334 306 327 289 348 329 323 279 214 188 215 192 210 226 247 182 219 233 228 230 238 243 245 217 254 245 258 208 209 174 254 275 205 201 154 183 187 210 204 197 192 195
335 334 327 332 301 293 359 323 322 278 288 149 133 123 210 200 96 200 175 210 228 227 247 238 240 256 252 255 247 268 282 327 321 270 261 246 243 63 146 215 280 239 216 197 186
329 328 321 344 264 266 300 310 288 239 250 144 144 195 193 216 238 140 198 227 230 243 237 258 251 229 252 243 278 269 273 274 241 272 271 268 240 142 161 194 256 279 269 208 183
324 315 305 282 246 324 311 286 236 244 97 197 196 171 207 192 231 163 202 199 217 219 236 228 255 244 276 274 250 242 251 255 252 243 252 271 19 205 194 200 180 213 233 196 199
319 308 284 258 258 283 283 251 249 257 283 75 322 188 210 207 207 181 203 211 222 223 232 217 218 232 205 225 244 226 243 241 242 253 261 42 141 194 226 209 214 226 215 184 190
325 306 240 262 223 234 249 230 233 259 355 21 203 257 208 239 253 189 201 216 208 224 237 243 225 203 216 209 228 254 226 259 272 282 282 113 114 193 205 222 201 164 154 175 183
324 293 252 178 187 218 238 249 271 317 7 320 276 214 249 191 191 245 208 219 226 211 231 261 284 252 179 207 211 243 258 223 225 267 284 193 192 212 201 210 138 147 150 168 179
283 244 118 171 193 226 236 240 250 258 266 260 275 296 265 301 200 227 241 218 213 237 212 241 264 264 170 186 229 206 245 261 276 228 253 270 109 118 57 305 164 141 167 165 174
294 260 143 176 209 229 241 247 276 304 263 255 288 299 306 310 276 237 275 224 199 215 235 214 249 253 245 207 201 258 213 231 251 255 277 295 257 153 167 171 97 139 185 155 185
283 305 154 209 233 234 227 249 263 273 244 243 241 250 269 277 293 279 283 51 132 253 246 210 230 256 264 196 191 220 249 233 238 259 242 269 239 170 123 120 159 151 151 113 298
279 261 198 199 253 285 285 223 245 221 266 271 263 274 292 262 264 280 259 154 129 249 25 304 232 228 244 235 200 199 228 261 267 256 257 247 273 186 168 135 137 116 124 165 207
248 269 17 272 215 236 263 283 239 245 193 247 252 254 256 253 257 227 272 175 166 163 222 243 246 252 266 279 289 210 205 215 242 267 275 280 54 45 131 99 116 130 152 162 183
295 344 346 298 295 296 268 250 264 268 240 208 244 255 229 263 324 299 320 280 332 173 214 223 253 275 266 266 261 274 276 209 212 234 258 274 127 117 112 108 145 201 152 161 188
1 328 279 289 284 257 249 249 247 260 270 250 286 254 253 15 357 321 314 308 305 311 222 213 244 240 241 253 246 230 246 257 218 211 229 248 120 127 143 160 186 157 162 167 147